Location: Malvern Link
(52.1333°N, 2.3000°W)
Time: 12:02:15
(UTC+00:00)

MOZHAYETS 4 - Pass Details

Date: 06 July 2022
Orbit: 660 x 679 km, 98.2° (Epoch: 11 August)

Event Time Altitude Azimuth Distance (km) Brightness Sun altitude
Exits shadow 02:06:17 - 158° (SSE) 2,640 10.4 -11.2°
Reaches altitude 10° 02:07:36 10° 157° (SSE) 2,105 9.9 -11.2°
Maximum altitude 02:12:11 76° 73° (ENE) 700 7.9 -10.8°
Drops below altitude 10° 02:16:47 10° 348° (NNW) 2,109 11.1 -10.5°
Sets 02:19:01 0° 347° (NNW) 3,024 11.9 -10.3°
